Hourly Data Report for September 15, 2017

All times are specified in Local Standard Time (LST). Add 1 hour to adjust for Daylight Saving Time where and when it is observed.

GRISE FIORD CLIMATE
NUNAVUT

76°25'22.040" N
82°54'08.020" W
44.50 m
2402351
71971
NGC

Download Data

Hourly Data (September 2017)
Hourly Data Report for September 15, 2017
Temp Definition
°C
Dew Point Temp Definition
°C
Rel Hum Definition
%
Wind Dir Definition
10's deg

Wind Spd Definition
km/h
Visibility Definition
km
Stn Press Definition
kPa
Hmdx Definition


Wind Chill Definition


Weather Definition


TIME
00:00 -4.4 -7.6 78 13 9   100.66   -8 LegendNANA
01:00 -4.6 -7.5 80 11 6   100.61   -7 LegendNANA
02:00 -3.8 -7.4 76 29 6   100.55   -6 LegendNANA
03:00 -4.7 -7.7 79 13 5   100.52   -7 LegendNANA
04:00 -6.5 -8.8 83 12 6   100.47   -9 LegendNANA
05:00 -5.4 -8.0 82 7 8   100.41   -9 LegendNANA
06:00 -5.4 -7.4 86 10 8   100.42   -9 LegendNANA
07:00 -5.0 -8.5 77 6 3   100.36   -6 LegendNANA
08:00 -6.1 -8.1 85 12 3   100.34   -8 LegendNANA
09:00 -4.7 -7.2 83 12 6   100.30   -7 LegendNANA
10:00 -3.8 -7.5 75 34 3   100.26   -5 LegendNANA
11:00 -3.0 -6.1 79 26 4   100.21   -5 LegendNANA
12:00 -2.4 -5.3 81 8 5   100.18   -4 LegendNANA
13:00 -1.5 -5.0 77 33 9   100.16   -5 LegendNANA
14:00 -2.5 -5.0 83 27 8   100.14   -6 LegendNANA
15:00 -2.6 -5.0 83 25 4   100.16   -4 LegendNANA
16:00 -2.5 -5.2 81 21 3   100.13   -4 LegendNANA
17:00 -2.4 -4.6 84 19 4   100.10   -4 LegendNANA
18:00 -2.4 -4.7 84 17 2   100.07   -3 LegendNANA
19:00 -2.6 -3.9 91 12 1   100.03   -3 LegendNANA
20:00 -2.0 -3.4 90 7 4   99.98   -3 LegendNANA
21:00 -1.7 -3.1 90 1 4   99.94   -3 LegendNANA
22:00 -1.9 -3.1 91 11 2   99.93   -3 LegendNANA
23:00 -2.3 -2.7 97 12 3   99.91   -3 LegendNANA

Notes on Data Quality.

Legend

  • E = Estimated
  • M = Missing
  • NA = Not Available
  • ‡ = Partner data that is not subject to review by the National Climate Archives
Date modified: